軌道要素
Epoch 2007 Sept. 17.0 TT = JDT 2454360.5
T 2007 Sept. 11.31879 TT MPCW
q 0.0537280 (2000.0) P Q
n 0.24695335 Peri. 48.71956 +0.66165422 -0.74980889
a 2.5160896 Node 359.85065 +0.60564225 +0.53488597
e 0.9786462 Incl. 12.65727 +0.44205335 +0.38946583
P 3.99
From 244 observations 1999 Sept. 4-2015 May 22.
|